^^
Datos históricos de la estación: Murcia-Puente Tocinos
 
Diario Informe para Mayo 27, 2018 Unidades:  Métrico    Inglés   Ambas
Diario Semanal Mensual Anual Configurable
  Actual: Máximo: Mínimo: Media:
Temperatura: 21.1 °C 21.1 °C 18.0 °C 18.9 °C
Punto de rocio: 15.6 °C 16.7 °C 14.9 °C 15.8 °C
Humedad: 71% 87% 70% 83%
Velocidad viento: 5.0km/h 9.5km/h 0.0km/h 5.2km/h
Racha viento: 9.3km/h 16.4km/h - -
VientoSE - - South
Presión: 1012.4 hPa 1012.4 hPa 1010.4 hPa -
Precipitación: 0.0 mm      
Historical Graphs
 
 
Tabla de datos para Mayo 27, 2018
Hora Temperatura Punto de rocio Presión Viento Velocidad viento Racha viento Humedad Intensidad lluvia(por hora) Nubes
00:04 19.0 °C 16.2 °C 1012.4 hPa ENE 7.6 km/h 14.8 km/h 84% 0.0 mm SCT
00:09 19.1 °C 16.3 °C 1012.4 hPa ENE 8.7 km/h 11.1 km/h 84% 0.0 mm SCT
00:14 19.1 °C 16.3 °C 1012.4 hPa ENE 8.7 km/h 13.0 km/h 84% 0.0 mm SCT
00:19 19.0 °C 16.2 °C 1012.1 hPa NE 6.9 km/h 14.8 km/h 84% 0.0 mm
00:24 19.0 °C 16.4 °C 1012.1 hPa NE 6.9 km/h 13.0 km/h 85% 0.0 mm
00:29 19.0 °C 16.4 °C 1012.1 hPa NE 9.5 km/h 10.0 km/h 85% 0.0 mm
00:34 18.9 °C 16.3 °C 1012.1 hPa NE 9.5 km/h 9.5 km/h 85% 0.0 mm
00:39 19.0 °C 16.4 °C 1012.1 hPa NE 7.6 km/h 13.0 km/h 85% 0.0 mm
00:44 19.1 °C 16.5 °C 1012.1 hPa NE 7.6 km/h 13.0 km/h 85% 0.0 mm
00:49 19.1 °C 16.5 °C 1012.1 hPa NNE 8.7 km/h 11.1 km/h 85% 0.0 mm CLR
00:54 19.1 °C 16.5 °C 1012.1 hPa NNE 8.7 km/h 9.3 km/h 85% 0.0 mm CLR
00:59 19.1 °C 16.5 °C 1012.1 hPa NNE 6.9 km/h 11.9 km/h 85% 0.0 mm CLR
01:04 19.1 °C 16.7 °C 1011.7 hPa NE 6.9 km/h 11.1 km/h 86% 0.0 mm CLR
01:09 19.1 °C 16.7 °C 1011.7 hPa NE 6.9 km/h 7.4 km/h 86% 0.0 mm CLR
01:14 19.0 °C 16.6 °C 1011.7 hPa NE 6.9 km/h 7.4 km/h 86% 0.0 mm CLR
01:19 19.0 °C 16.6 °C 1012.1 hPa ENE 5.8 km/h 7.4 km/h 86% 0.0 mm
01:24 19.0 °C 16.6 °C 1012.1 hPa ENE 5.8 km/h 7.4 km/h 86% 0.0 mm
01:29 19.0 °C 16.4 °C 1012.1 hPa NE 5.0 km/h 5.6 km/h 85% 0.0 mm SCT
01:34 19.0 °C 16.6 °C 1011.7 hPa NE 5.0 km/h 5.6 km/h 86% 0.0 mm
01:37 18.9 °C 16.5 °C 1011.7 hPa NE 3.9 km/h 3.9 km/h 86% 0.0 mm
01:40 18.9 °C 16.5 °C 1011.7 hPa NE 3.9 km/h 4.7 km/h 86% 0.0 mm SCT
01:45 18.9 °C 16.5 °C 1011.7 hPa NE 3.2 km/h 5.6 km/h 86% 0.0 mm CLR
01:50 18.9 °C 16.5 °C 1011.7 hPa NE 3.2 km/h 3.7 km/h 86% 0.0 mm FEW
01:55 18.9 °C 16.5 °C 1011.7 hPa NE 3.2 km/h 5.6 km/h 86% 0.0 mm CLR
02:00 18.9 °C 16.5 °C 1011.7 hPa NE 3.2 km/h 7.4 km/h 86% 0.0 mm CLR
02:05 18.9 °C 16.5 °C 1011.1 hPa NE 3.9 km/h 7.4 km/h 86% 0.0 mm CLR
02:11 18.9 °C 16.5 °C 1011.1 hPa NE 3.9 km/h 3.9 km/h 86% 0.0 mm FEW
02:16 18.9 °C 16.5 °C 1011.1 hPa NE 2.9 km/h   86% 0.0 mm
02:21 18.9 °C 16.5 °C 1011.1 hPa NE 2.9 km/h 5.6 km/h 86% 0.0 mm SCT
02:26 18.8 °C 16.4 °C 1011.1 hPa WNW 2.9 km/h 7.4 km/h 86% 0.0 mm
02:31 18.8 °C 16.4 °C 1011.1 hPa NW 2.9 km/h 7.4 km/h 86% 0.0 mm SCT
02:36 18.7 °C 16.3 °C 1010.7 hPa NW 3.9 km/h 3.9 km/h 86% 0.0 mm
02:41 18.7 °C 16.3 °C 1010.7 hPa NW 3.9 km/h 5.6 km/h 86% 0.0 mm SCT
02:46 18.7 °C 16.5 °C 1010.7 hPa NW 3.2 km/h 7.4 km/h 87% 0.0 mm
02:51 18.7 °C 16.5 °C 1010.7 hPa NW 3.2 km/h 7.4 km/h 87% 0.0 mm SCT
02:56 18.7 °C 16.5 °C 1010.7 hPa NW 3.9 km/h 5.8 km/h 87% 0.0 mm
03:01 18.7 °C 16.5 °C 1010.7 hPa NW 3.9 km/h 7.4 km/h 87% 0.0 mm
03:06 18.6 °C 16.4 °C 1010.7 hPa NW 3.9 km/h 5.6 km/h 87% 0.0 mm
03:11 18.6 °C 16.4 °C 1010.7 hPa NW 3.9 km/h 5.6 km/h 87% 0.0 mm SCT
03:16 18.6 °C 16.4 °C 1010.7 hPa West 3.2 km/h 5.8 km/h 87% 0.0 mm CLR
03:21 18.7 °C 16.5 °C 1010.7 hPa West 3.2 km/h 5.6 km/h 87% 0.0 mm FEW
03:26 18.7 °C 16.5 °C 1010.7 hPa West 3.9 km/h 7.4 km/h 87% 0.0 mm CLR
03:31 18.7 °C 16.5 °C 1010.7 hPa West 3.9 km/h   87% 0.0 mm FEW
03:36 18.7 °C 16.5 °C 1010.7 hPa Calm     87% 0.0 mm CLR
03:41 18.7 °C 16.5 °C 1010.7 hPa Calm   5.6 km/h 87% 0.0 mm FEW
03:46 18.7 °C 16.3 °C 1010.7 hPa West 2.3 km/h 3.7 km/h 86% 0.0 mm CLR
03:51 18.7 °C 16.1 °C 1010.4 hPa WSW 2.3 km/h 7.4 km/h 85% 0.0 mm FEW
03:56 18.6 °C 16.0 °C 1010.4 hPa SSW 3.9 km/h 7.4 km/h 85% 0.0 mm CLR
04:01 18.7 °C 15.9 °C 1010.4 hPa SSE 3.9 km/h 8.7 km/h 84% 0.0 mm CLR
04:06 18.7 °C 15.9 °C 1010.4 hPa South 5.8 km/h 7.4 km/h 84% 0.0 mm CLR
04:11 18.7 °C 15.9 °C 1010.4 hPa South 5.8 km/h 5.8 km/h 84% 0.0 mm FEW
04:16 18.7 °C 15.9 °C 1010.4 hPa South 3.2 km/h 7.4 km/h 84% 0.0 mm CLR
04:21 18.7 °C 15.9 °C 1010.4 hPa WNW 3.2 km/h 7.4 km/h 84% 0.0 mm FEW
04:26 18.6 °C 16.0 °C 1010.4 hPa West 3.9 km/h 7.4 km/h 85% 0.0 mm CLR
04:31 18.6 °C 15.8 °C 1010.4 hPa West 3.9 km/h 5.8 km/h 84% 0.0 mm FEW
04:36 18.4 °C 15.7 °C 1010.4 hPa WSW 4.7 km/h 9.3 km/h 84% 0.0 mm CLR
04:41 18.3 °C 15.6 °C 1010.4 hPa SW 4.7 km/h 9.3 km/h 84% 0.0 mm FEW
04:46 18.4 °C 15.7 °C 1010.4 hPa WSW 5.8 km/h 11.1 km/h 84% 0.0 mm CLR
04:51 18.4 °C 15.7 °C 1010.4 hPa SW 5.8 km/h 11.1 km/h 84% 0.0 mm CLR
04:56 18.5 °C 15.7 °C 1010.4 hPa SSW 6.4 km/h 9.5 km/h 84% 0.0 mm CLR
05:01 18.5 °C 15.7 °C 1010.4 hPa SSW 6.4 km/h 8.7 km/h 84% 0.0 mm CLR
05:06 18.5 °C 15.7 °C 1010.7 hPa South 6.9 km/h 13.0 km/h 84% 0.0 mm CLR
05:11 18.4 °C 15.7 °C 1010.7 hPa SSW 6.9 km/h 11.1 km/h 84% 0.0 mm CLR
05:16 18.4 °C 15.7 °C 1010.7 hPa SSW 6.9 km/h 9.3 km/h 84% 0.0 mm CLR
05:21 18.3 °C 15.6 °C 1010.7 hPa South 6.9 km/h 11.1 km/h 84% 0.0 mm CLR
05:26 18.3 °C 15.6 °C 1010.7 hPa SSW 7.6 km/h 14.8 km/h 84% 0.0 mm CLR
05:31 18.3 °C 15.6 °C 1010.7 hPa SSE 7.6 km/h 9.3 km/h 84% 0.0 mm CLR
05:36 18.2 °C 15.4 °C 1010.7 hPa SSW 6.9 km/h 11.1 km/h 84% 0.0 mm CLR
05:41 18.2 °C 15.4 °C 1010.7 hPa SSE 6.9 km/h 9.3 km/h 84% 0.0 mm CLR
05:46 18.2 °C 15.4 °C 1010.7 hPa South 6.4 km/h 7.4 km/h 84% 0.0 mm CLR
05:51 18.2 °C 15.4 °C 1010.7 hPa SSW 6.4 km/h 9.3 km/h 84% 0.0 mm CLR
05:56 18.2 °C 15.4 °C 1010.7 hPa SSW 6.4 km/h 9.5 km/h 84% 0.0 mm CLR
06:01 18.2 °C 15.4 °C 1010.7 hPa SW 6.4 km/h 11.1 km/h 84% 0.0 mm CLR
06:06 18.3 °C 15.6 °C 1010.7 hPa SW 5.0 km/h 7.4 km/h 84% 0.0 mm CLR
06:11 18.3 °C 15.6 °C 1010.7 hPa SSW 5.0 km/h 7.4 km/h 84% 0.0 mm CLR
06:16 18.4 °C 15.7 °C 1010.7 hPa SSW 4.7 km/h 4.7 km/h 84% 0.0 mm FEW
06:21 18.4 °C 15.7 °C 1010.7 hPa SSW 4.7 km/h 6.9 km/h 84% 0.0 mm FEW
06:26 18.5 °C 15.6 °C 1010.7 hPa SW 3.9 km/h 11.1 km/h 83% 0.0 mm FEW
06:31 18.5 °C 15.6 °C 1010.7 hPa SSW 3.9 km/h 11.1 km/h 83% 0.0 mm FEW
06:36 18.6 °C 15.4 °C 1011.1 hPa SSW 6.9 km/h 9.3 km/h 82% 0.0 mm FEW
06:41 18.6 °C 15.4 °C 1011.1 hPa South 6.9 km/h 9.3 km/h 82% 0.0 mm FEW
06:46 18.6 °C 15.4 °C 1011.1 hPa SSW 5.8 km/h 9.3 km/h 82% 0.0 mm FEW
06:51 18.6 °C 15.4 °C 1011.1 hPa SW 5.8 km/h 9.3 km/h 82% 0.0 mm FEW
06:56 18.6 °C 15.3 °C 1011.1 hPa WSW 5.8 km/h 7.4 km/h 81% 0.0 mm FEW
07:01 18.6 °C 15.3 °C 1011.1 hPa West 5.8 km/h 8.7 km/h 81% 0.0 mm FEW
07:06 18.4 °C 15.1 °C 1011.1 hPa WSW 5.0 km/h 11.1 km/h 81% 0.0 mm FEW
07:11 18.2 °C 15.1 °C 1011.1 hPa WSW 5.0 km/h 9.5 km/h 82% 0.0 mm FEW
07:13 18.2 °C 15.1 °C 1011.1 hPa WSW 5.0 km/h 16.4 km/h 82% 0.0 mm FEW
07:18 18.0 °C 14.9 °C 1011.1 hPa South 7.6 km/h 9.3 km/h 82% 0.0 mm CLR
07:23 18.0 °C 14.9 °C 1011.1 hPa SW 7.6 km/h 11.9 km/h 82% 0.0 mm CLR
07:28 18.1 °C 15.0 °C 1011.1 hPa SW 6.4 km/h 13.0 km/h 82% 0.0 mm CLR
07:33 18.1 °C 15.0 °C 1011.1 hPa SW 6.4 km/h 11.1 km/h 82% 0.0 mm CLR
07:38 18.2 °C 15.1 °C 1011.1 hPa SW 6.9 km/h 7.4 km/h 82% 0.0 mm CLR
07:43 18.3 °C 15.2 °C 1011.1 hPa West 6.9 km/h 7.4 km/h 82% 0.0 mm CLR
07:48 18.4 °C 15.1 °C 1011.4 hPa West 5.0 km/h 7.4 km/h 81% 0.0 mm
07:53 18.6 °C 15.3 °C 1011.4 hPa South 5.0 km/h 8.4 km/h 81% 0.0 mm
07:58 18.5 °C 15.2 °C 1011.4 hPa SW 5.8 km/h 11.1 km/h 81% 0.0 mm
08:03 18.6 °C 15.3 °C 1011.4 hPa South 5.8 km/h 9.3 km/h 81% 0.0 mm
08:08 18.6 °C 15.3 °C 1011.4 hPa SSE 6.4 km/h 13.0 km/h 81% 0.0 mm
08:13 18.6 °C 15.3 °C 1011.4 hPa SSE 6.4 km/h 13.0 km/h 81% 0.0 mm
08:18 18.7 °C 15.4 °C 1011.7 hPa South 7.6 km/h 9.3 km/h 81% 0.0 mm
08:23 18.8 °C 15.3 °C 1011.7 hPa SW 7.6 km/h 7.6 km/h 80% 0.0 mm
08:28 19.0 °C 15.4 °C 1011.7 hPa South 4.7 km/h 7.4 km/h 80% 0.0 mm
08:33 19.2 °C 15.4 °C 1011.4 hPa South 4.7 km/h 9.3 km/h 79% 0.0 mm
08:38 19.4 °C 15.4 °C 1011.4 hPa SSW 4.7 km/h 7.4 km/h 78% 0.0 mm
08:43 19.6 °C 15.4 °C 1011.4 hPa WSW 4.7 km/h 9.3 km/h 77% 0.0 mm
08:48 19.6 °C 15.4 °C 1011.7 hPa West 4.7 km/h 7.4 km/h 77% 0.0 mm
08:53 19.6 °C 15.3 °C 1011.7 hPa West 4.7 km/h 7.4 km/h 76% 0.0 mm
08:58 19.6 °C 15.3 °C 1011.7 hPa West 5.0 km/h 5.8 km/h 76% 0.0 mm
09:03 19.7 °C 15.2 °C 1011.7 hPa WSW 5.0 km/h 7.4 km/h 75% 0.0 mm
09:08 19.8 °C 15.2 °C 1011.7 hPa SSW 4.7 km/h 6.4 km/h 75% 0.0 mm
09:13 19.9 °C 15.3 °C 1011.7 hPa SW 4.7 km/h 8.4 km/h 75% 0.0 mm
09:18 20.1 °C 15.3 °C 1011.7 hPa NW 3.2 km/h 8.7 km/h 74% 0.0 mm
09:23 20.1 °C 15.3 °C 1011.7 hPa WNW 3.2 km/h 7.4 km/h 74% 0.0 mm
09:28 20.2 °C 15.2 °C 1011.7 hPa WNW 5.0 km/h 7.4 km/h 73% 0.0 mm
09:33 20.4 °C 15.4 °C 1012.1 hPa WNW 5.0 km/h 7.4 km/h 73% 0.0 mm
09:38 20.4 °C 15.2 °C 1012.1 hPa WNW 4.7 km/h 5.6 km/h 72% 0.0 mm
09:43 20.7 °C 15.4 °C 1012.1 hPa SE 4.7 km/h 6.4 km/h 72% 0.0 mm
09:48 20.9 °C 15.4 °C 1012.1 hPa SE 3.2 km/h 5.6 km/h 71% 0.0 mm
09:53 21.1 °C 15.4 °C 1012.1 hPa SSW 3.2 km/h 9.3 km/h 70% 0.0 mm
09:58 21.1 °C 15.4 °C 1012.1 hPa SW 5.0 km/h 7.6 km/h 70% 0.0 mm
10:03 21.1 °C 15.6 °C 1012.4 hPa SE 5.0 km/h 9.3 km/h 71% 0.0 mm
Murcia-Puente Tocinos, España
Compliments of Weather Underground - 2 mb

La estación de MeteoMurcia.com, publica sus datos en los siguientes proyectos:

Meteoclimatic www.awekas.at

W3Counter
Web Analytics